Nimba Airport

Jump to: basic info | weather | comments

Related pages: nearby airports | nearby navaids | notams | map

Basic information (top)

Codes: NIA GLNA
Location: lon 7.500000, lat -8.600000, elev 1,632 ft / 497 m msl
Status: small_airport
Scheduled airline service: no
Links: Wikipedia Mobile

Weather (top)

Current conditions for Man Airport 62nm (115km) ESE (rec'd 2013/11/21 04:00Z):

DIMN 210400Z NOL

Airport forecast for Roberts International Airport 130nm (240km) SW (rec'd 2014/07/22 06:51Z):

TAF TAF GLRB 220400Z 2206/2312 21010KT 8000 BKN011 FEW022 CB 
      TEMPO 2207/2211 16008KT 6000 RA/TSRA SCT005 BKN010 FEW020CB 
      TEMPO 2212/2216 22020KT 9000 
      BECMG 2217/2219 08005KT 9999 SCT013 BKN070

Latest comments (top)

No comments yet for Nimba Airport

More... (top)

See also NOTAMs and nearby airports and navaids, or visit the Nimba Airport page at the main OurAirports website..